Emre Yazici

Olheiro - Trabzonspor
4 Jun 2028
Domingo
Processo

Personalidade

Adaptabilidade (16) Ambição (4) Controvérsia (13) Lealdade (2) Pressão (4) Profissionalismo (4) Espírito Esportivo (6) Temperamento (4)

Perfil

Estilo de Treinamento Democrático
Licença Nacional B
Determinação 7
Gestão de Pessoas 8
Motivação 11
Disciplina 11
Satisfação no Trabalho
100%
Fadiga
0%
Função Olheiro
Salário 47.4K p/s
Contrato 14.03.2030

Desempenho

Comportamento Bom
Eficácia do Treinamento
51%
Desenvolvimento do Jogador
65%
Prevenção de Lesões
55%
Implementação Tática
55%

Eventos Recentes

Avaliou um jogador agora
Avaliou um jogador agora
Avaliou um jogador agora

Monitorando agora

102
Jogador Clube Status Habilidade Confiança Observado Última observação Último voto
Miguel Figueiredo Benfica Ativo 135 / 121 40% 1 02.06.2028 -
Souza Tottenham Ativo 140 / 124 40% 1 02.06.2028 -
Kerem Demirbay Kasimpasa Ativo 124 / 117 58% 1 01.06.2028 -
Mateo Cassierra Atlético Mineiro Ativo 137 / 129 40% 2 31.01.2028 -
Christian Kouamé CSKA Moscow Ativo 131 / 128 40% 1 31.01.2028 -
Mattia Puzone Siracusa Ativo 105 / 115 40% 1 31.01.2028 -
Cheikh Sabaly Vancouver Whitecaps Ativo 138 / 123 40% 2 29.01.2028 -
Sam Surridge Nashville SC Ativo 122 / 138 40% 1 29.01.2028 -
Ezra Mayers West Ham United Ativo 114 / 128 40% 1 29.01.2028 -
Niccolò Fortini Fiorentina Ativo 137 / 149 40% 1 29.01.2028 -
Sifiso Khune São Paulo Ativo 137 / 130 40% 2 26.01.2028 -
Kévin Denkey FC Cincinnati Ativo 144 / 131 40% 1 26.01.2028 -
Pedro Flamengo Ativo 131 / 136 40% 2 23.01.2028 -
Sinclair Armstrong Notts County Ativo 121 / 118 40% 1 23.01.2028 -
Vitinho Internacional Ativo 145 / 118 40% 2 22.01.2028 -
Mateusz Bogusz Houston Dynamo Ativo 142 / 136 40% 1 21.01.2028 -
Ezekiel Kwame Alladoh Philadelphia Union Ativo 137 / 136 40% 1 21.01.2028 -
Josh Sargent Toronto FC Ativo 129 / 133 40% 2 20.01.2028 -
Efraín Álvarez Flamengo Ativo 136 / 125 40% 2 20.01.2028 -
Martín Ojeda Orlando City Ativo 124 / 135 40% 1 19.01.2028 -
Mihailo Ivanović Pandurii Ativo 122 / 131 40% 1 19.01.2028 -
Urko Izeta Cádiz Ativo 126 / 137 40% 1 16.01.2028 -
Ali Yavuz Kol Kasimpasa Ativo 109 / 124 40% 1 15.01.2028 -
Leonardo Campana New England Revolution Ativo 136 / 137 40% 3 14.01.2028 -
Luca Martínez Dupuy Godoy Cruz Ativo 110 / 123 40% 1 14.01.2028 -
Jovon Makama Orlando City Ativo 118 / 120 40% 1 11.01.2028 -
Jesus Ferreira Seattle Sounders Ativo 133 / 129 40% 1 11.01.2028 -
Peter Christiansen Viking Ativo 112 / 114 40% 1 10.01.2028 -
Izan Merino Málaga Ativo 138 / 129 40% 1 06.01.2028 -
Juan Morán Godoy Cruz Ativo 122 / 121 40% 1 06.01.2028 -
Berkan Kutlu Konyaspor Ativo 123 / 119 58% 1 02.01.2028 -
Rabby Nzingoula West Bromwich Albion Ativo 117 / 139 40% 1 31.08.2027 -
Facundo Kruspzky Al Wahda Ativo 132 / 129 40% 1 29.08.2027 -
Jonatan Torres Cerro Porteno Ativo 122 / 131 40% 1 28.08.2027 -
Jeremy Ebobisse Los Angeles Football Club Ativo 107 / 122 40% 1 27.08.2027 -
Luciano Cosentino Vegalta Sendai Ativo 122 / 132 40% 1 24.08.2027 -
Yusuke Matsuo Kashiwa Reysol Ativo 138 / 119 40% 1 23.08.2027 -
Willy Agada Hapoel Haifa Ativo 128 / 120 40% 1 22.08.2027 -
Ion Nicolăescu Maccabi Tel Aviv Ativo 139 / 110 40% 1 21.08.2027 -
Boulaye Dia Lazio Ativo 147 / 143 40% 1 20.08.2027 -
Matija Frigan Parma Ativo 112 / 124 40% 1 20.08.2027 -
Matteo Rizzo Campobasso Ativo 127 / 121 40% 1 20.08.2027 -
Yasin Özcan Aston Villa Ativo 96 / 121 40% 1 18.08.2027 -
Brandon Powell Blackburn Rovers Ativo 120 / 110 40% 1 18.08.2027 -
Ishé Samuels-Smith Chelsea Ativo 107 / 125 40% 1 17.08.2027 -
Theo Corbeanu Toronto FC Ativo 132 / 115 40% 1 16.08.2027 -
Mirko Bruno Vélez Ativo 87 / 122 40% 1 15.08.2027 -
Filip Stojilković Pisa Ativo 140 / 117 40% 1 13.08.2027 -
David Okereke Cremonese Ativo 126 / 120 40% 1 11.08.2027 -
Callum Lang Preston Ativo 113 / 110 40% 4 09.08.2027 -
Malik Mothersille Stockport County Ativo 118 / 127 40% 2 09.08.2027 -
Frankarlos Benítez Caracas Ativo 112 / 121 40% 1 09.08.2027 -
Michael Atata Ikorodu City Ativo 112 / 93 40% 1 09.08.2027 -
Dany Mota Monza Ativo 149 / 132 40% 2 07.08.2027 -
Riley Owen Bristol Rovers Ativo 98 / 104 40% 1 07.08.2027 -
Jay Stansfield Birmingham Ativo 131 / 142 40% 7 06.08.2027 -
Richarlison Bayer Leverkusen Ativo 130 / 136 40% 1 05.08.2027 -
Kyle Wootton Stockport County Ativo 127 / 116 40% 2 04.08.2027 -
Mathias Kvistgaarden Norwich City Ativo 141 / 128 40% 1 02.08.2027 -
Aaron Connolly Leyton Orient Ativo 121 / 129 40% 2 01.08.2027 -
Aidomo Emakhu Oxford United Ativo 135 / 136 40% 1 01.08.2027 -
Bertuğ Yıldırım Basaksehir Ativo 121 / 126 40% 6 31.07.2027 -
Tammer Kumar West Bromwich Albion Ativo 111 / 116 40% 2 31.07.2027 -
Davis Keillor-Dunn Wrexham Ativo 109 / 110 40% 4 29.07.2027 -
Isaak Davies Cardiff City Ativo 109 / 128 40% 2 28.07.2027 -
Andrea Sergio Mazza Giana Erminio Ativo 98 / 92 40% 1 27.07.2027 -
Elia Boseggia Novara Ativo 119 / 121 40% 1 27.07.2027 -
Aune Heggebø West Bromwich Albion Ativo 139 / 123 40% 4 26.07.2027 -
Abu Kamara Portsmouth Ativo 104 / 117 40% 1 22.07.2027 -
Konan N'Dri Lecce Ativo 138 / 126 40% 3 20.07.2027 -
Alessio Insignito Spezia Ativo 103 / 116 40% 1 20.07.2027 -
Ismaël Baouf Cambuur Ativo 118 / 130 40% 1 20.07.2027 -
Oh Hyeon-Gyu Besiktas Ativo 123 / 131 40% 1 17.07.2027 -
Leonardo Candellone Juve Stabia Ativo 109 / 123 40% 2 16.07.2027 -
Julián Quiñones Al-Qadisiyah Ativo 160 / 156 40% 1 16.07.2027 -
Youssef En-Nesyri Al-Ittihad Ativo 134 / 154 40% 2 14.07.2027 -
Adrian Benedyczak Kasimpasa Ativo 119 / 127 40% 1 14.07.2027 -
Yoane Wissa Newcastle United Ativo 141 / 152 40% 1 13.07.2027 -
Mathias Jørgensen Blackburn Rovers Ativo 110 / 115 40% 1 11.07.2027 -
Elijah Adebayo Luton Town Ativo 128 / 122 40% 5 10.07.2027 -
Kelvin Flórez Udinese Ativo 113 / 122 40% 2 10.07.2027 -
Stiven Shpendi Empoli Ativo 116 / 115 40% 2 09.07.2027 -
Lorenzo Colombo Genoa Ativo 124 / 139 40% 1 09.07.2027 -
Richard Koné Queens Park Rangers Ativo 128 / 137 40% 2 08.07.2027 -
Elia Caprile Cagliari Ativo 152 / 145 40% 1 07.07.2027 -
Daniel Iversen Preston Ativo 125 / 138 40% 1 07.07.2027 -
Che Adams Torino Ativo 156 / 142 40% 3 05.07.2027 -
Nnamdi Obafemi Remo Stars Ativo 84 / 122 40% 1 05.07.2027 -
Marius Courcoul Olympique de Marseille Ativo 120 / 130 40% 1 03.07.2027 -
Marezi Portsmouth Ativo 121 / 123 40% 1 01.07.2027 -
Rumarn Burrell Queens Park Rangers Ativo 110 / 124 40% 4 29.06.2027 -
Ross Stewart Southampton Ativo 110 / 120 40% 4 24.06.2027 -
Marco Oroná Antofagasta Ativo 109 / 98 40% 1 21.06.2027 -
Tyreece Campbell Charlton Athletic Ativo 106 / 124 40% 2 12.06.2027 -
Andri Guðjohnsen Blackburn Rovers Ativo 107 / 124 40% 1 11.06.2027 -
Luca Langoni Besiktas Ativo 133 / 123 40% 1 06.06.2027 -
Harley Mills Peterborough United Ativo 106 / 105 40% 1 06.06.2027 -
Jean-Luc Dompé Konyaspor Ativo 135 / 118 55% 1 01.06.2027 Observar
Jorge Salinas Racing Santander Ativo 108 / 126 40% 1 01.01.2027 -
Reed Baker-Whiting Nashville SC Ativo 104 / 102 40% 1 04.08.2026 -
Yusuf Özdemir Alanyaspor Ativo 125 / 124 51% 1 03.08.2026 -
Uğurcan Çakır Galatasaray Ativo 139 / 130 40% 1 01.08.2026 -